Kathy C — 2CTI7 — position and weather

sailwx.info

Track history (hours):
 
Tides and Currents Weather Stations Pressure Air Temp Water Temp Dewpoint Dewpoint Depression Visibility Wind Speed Wind Dir Waves Ship Positions

Kathy C

Last reported at 2014-Jul-28 22:15 UTC. Time now 2014-Jul-30 21:14 UTC.
Position N 38°08' W 009°41'.

Length 106 m; draft 7 m.

Type: Cargo ship. MMSI: 235075591.

Date/timePositionNaut miles runAvg speedWind from/ knotsBaromVisibWave heightAir tempDewpointWater temp
2014-Jul-28 22:15N 38°08' W 009°41'6 7.9
2014-Jul-28 21:33N 38°03' W 009°39'8 8.4
2014-Jul-28 20:33N 37°55' W 009°37'9 8.8
2014-Jul-28 19:34N 37°46' W 009°34'9 9.3
2014-Jul-28 18:33N 37°37' W 009°32'1210.2
2014-Jul-28 17:23N 37°26' W 009°28'2210.3
2014-Jul-28 15:16N 37°04' W 009°22'34 9.2
2014-Jul-28 11:33N 36°40' W 008°52'1010.0
2014-Jul-28 10:32N 36°37' W 008°40'1010.1
2014-Jul-28 09:30N 36°33' W 008°27'154 9.6
2014-Jul-27 17:31N 35°58' W 005°22'5 4.8
2014-Jul-27 16:32N 35°54' W 005°19'0 0.0
2014-Jul-27 15:32N 35°54' W 005°19'0 0.0
2014-Jul-27 14:32N 35°54' W 005°19'0 0.0
2014-Jul-27 13:32N 35°54' W 005°19'2 2.5
2014-Jul-27 12:33N 35°56' W 005°17'259 9.6
2014-Jul-26 09:28N 37°46' W 000°24'2310.5
2014-Jul-26 07:16N 38°05' W 000°08'710.5
2014-Jul-26 06:33N 38°11' W 000°03'1110.6
2014-Jul-26 05:28N 38°21' E 000°05'1010.7
2014-Jul-26 04:32N 38°29' E 000°12'2210.7
2014-Jul-26 02:28N 38°48' E 000°28'1111.0
2014-Jul-26 01:30N 38°56' E 000°36'1110.7
2014-Jul-26 00:27N 39°05' E 000°45'1310.8
2014-Jul-25 23:16N 39°15' E 000°54'3210.6
2014-Jul-25 20:12N 39°41' E 001°20'710.3
2014-Jul-25 19:33N 39°47' E 001°25'1010.3
2014-Jul-25 18:33N 39°55' E 001°33'1010.0
2014-Jul-25 17:33N 40°03' E 001°40'10 9.9
2014-Jul-25 16:33N 40°11' E 001°48'10 9.8
2014-Jul-25 15:33N 40°19' E 001°56'10 9.6
2014-Jul-25 14:33N 40°27' E 002°03'9 9.3
2014-Jul-25 13:33N 40°34' E 002°10'10 9.7
2014-Jul-25 12:33N 40°42' E 002°18'1010.1
2014-Jul-25 11:33N 40°50' E 002°26'1010.4
2014-Jul-25 10:33N 40°58' E 002°34'1010.5
2014-Jul-25 09:33N 41°07' E 002°43'1110.5
2014-Jul-25 08:33N 41°15' E 002°51'1110.4
2014-Jul-25 07:32N 41°24' E 002°59'1010.1
2014-Jul-25 06:33N 41°32' E 003°07'10 9.9
2014-Jul-25 05:33N 41°39' E 003°15'10 9.9
2014-Jul-25 04:33N 41°48' E 003°23'1010.1
2014-Jul-25 03:31N 41°57' E 003°28'1010.3
2014-Jul-25 02:33N 42°07' E 003°31'10 9.8
2014-Jul-25 01:32N 42°17' E 003°34'10 9.9
2014-Jul-25 00:33N 42°26' E 003°35'1010.2
2014-Jul-24 23:32N 42°37' E 003°38'1010.4
2014-Jul-24 22:33N 42°47' E 003°40'1110.0
2014-Jul-24 21:24N 42°58' E 003°43'910.5
2014-Jul-24 20:34N 43°07' E 003°45'17 0.7
2014-Jul-23 21:08N 43°24' E 003°42'0 0.0
2014-Jul-23 19:17N 43°24' E 003°42'0 0.6
2014-Jul-23 18:34N 43°24' E 003°43'7 7.4
2014-Jul-23 17:33N 43°19' E 003°50'1111.2
2014-Jul-23 16:33N 43°10' E 003°40'1212.1
2014-Jul-23 15:31N 43°03' E 003°26'1111.6
2014-Jul-23 14:33N 42°58' E 003°13'8 3.3
2014-Jul-23 12:08N 43°01' E 003°03'0 0.0
2014-Jul-22 23:10N 43°01' E 003°03'0 0.0
2014-Jul-22 12:15N 43°01' E 003°03'0 0.0
2014-Jul-22 10:31N 43°01' E 003°03'0 0.0
2014-Jul-22 08:24N 43°01' E 003°03'0 0.0
2014-Jul-22 07:27N 43°01' E 003°03'0 0.0
2014-Jul-21 20:16N 43°01' E 003°03'0 0.0
2014-Jul-21 19:34N 43°01' E 003°03'0 0.0
2014-Jul-21 18:34N 43°01' E 003°03'0 0.0
2014-Jul-21 17:30N 43°01' E 003°03'0 0.0
2014-Jul-21 13:34N 43°01' E 003°03'0 0.0
2014-Jul-21 09:25N 43°01' E 003°03'0 0.0
2014-Jul-21 07:19N 43°01' E 003°03'0 0.0
2014-Jul-21 06:12N 43°01' E 003°03'0 0.0
2014-Jul-21 04:32N 43°01' E 003°03'0 0.0
2014-Jul-21 02:14N 43°01' E 003°03'0 0.0
2014-Jul-21 01:32N 43°01' E 003°03'0 0.0
2014-Jul-20 23:26N 43°01' E 003°03'0 0.0
2014-Jul-20 22:32N 43°01' E 003°03'0 0.0
2014-Jul-20 21:21N 43°01' E 003°03'0 0.0
2014-Jul-20 20:27N 43°01' E 003°03'0 0.0
2014-Jul-20 19:29N 43°01' E 003°03'5 0.8
2014-Jul-20 13:33N 42°60' E 003°09'1010.3
2014-Jul-20 12:33N 42°53' E 003°20'20 9.9
2014-Jul-20 10:31N 42°38' E 003°38'9 9.2
2014-Jul-20 09:33N 42°31' E 003°46'20 9.8
2014-Jul-20 07:33N 42°16' E 004°03'1110.8
2014-Jul-20 06:33N 42°08' E 004°13'1311.6
2014-Jul-20 05:25N 41°58' E 004°25'1110.8
2014-Jul-20 04:21N 41°50' E 004°35'1010.5
2014-Jul-20 03:22N 41°42' E 004°44'910.5
2014-Jul-20 02:33N 41°35' E 004°51'1111.3
2014-Jul-20 01:32N 41°28' E 005°03'11 9.2
2014-Jul-20 00:20N 41°18' E 005°11'810.1
2014-Jul-19 23:33N 41°12' E 005°17'1010.0
2014-Jul-19 22:33N 41°05' E 005°27'1310.2
2014-Jul-19 21:16N 40°55' E 005°38'710.0
2014-Jul-19 20:33N 40°50' E 005°44'1110.5
2014-Jul-19 19:33N 40°42' E 005°53'1010.3
2014-Jul-19 18:33N 40°34' E 006°02'1010.5
2014-Jul-19 17:33N 40°26' E 006°11'1110.5
2014-Jul-19 16:31N 40°18' E 006°21'1010.5
2014-Jul-19 15:32N 40°10' E 006°30'1210.8
2014-Jul-19 14:28N 40°02' E 006°40'1211.7
2014-Jul-19 13:28N 39°53' E 006°50'1010.3
2014-Jul-19 12:31N 39°45' E 006°58'1111.0
2014-Jul-19 11:32N 39°37' E 007°07'1111.1
2014-Jul-19 10:32N 39°29' E 007°17'  
Track history (hours):
 
Tides and Currents Weather Stations Pressure Air Temp Water Temp Dewpoint Dewpoint Depression Visibility Wind Speed Wind Dir Waves Ship Positions

Kathy C

Last reported at 2014-Jul-28 22:15 UTC. Time now 2014-Jul-30 21:14 UTC.
Position N 38°08' W 009°41'.

Length 106 m; draft 7 m.

Type: Cargo ship. MMSI: 235075591.

Date/timePositionNaut miles runAvg speedWind from/ knotsBaromVisibWave heightAir tempDewpointWater temp
2014-Jul-28 22:15N 38°08' W 009°41'6 7.9
2014-Jul-28 21:33N 38°03' W 009°39'8 8.4
2014-Jul-28 20:33N 37°55' W 009°37'9 8.8
2014-Jul-28 19:34N 37°46' W 009°34'9 9.3
2014-Jul-28 18:33N 37°37' W 009°32'1210.2
2014-Jul-28 17:23N 37°26' W 009°28'2210.3
2014-Jul-28 15:16N 37°04' W 009°22'34 9.2
2014-Jul-28 11:33N 36°40' W 008°52'1010.0
2014-Jul-28 10:32N 36°37' W 008°40'1010.1
2014-Jul-28 09:30N 36°33' W 008°27'154 9.6
2014-Jul-27 17:31N 35°58' W 005°22'5 4.8
2014-Jul-27 16:32N 35°54' W 005°19'0 0.0
2014-Jul-27 15:32N 35°54' W 005°19'0 0.0
2014-Jul-27 14:32N 35°54' W 005°19'0 0.0
2014-Jul-27 13:32N 35°54' W 005°19'2 2.5
2014-Jul-27 12:33N 35°56' W 005°17'259 9.6
2014-Jul-26 09:28N 37°46' W 000°24'2310.5
2014-Jul-26 07:16N 38°05' W 000°08'710.5
2014-Jul-26 06:33N 38°11' W 000°03'1110.6
2014-Jul-26 05:28N 38°21' E 000°05'1010.7
2014-Jul-26 04:32N 38°29' E 000°12'2210.7
2014-Jul-26 02:28N 38°48' E 000°28'1111.0
2014-Jul-26 01:30N 38°56' E 000°36'1110.7
2014-Jul-26 00:27N 39°05' E 000°45'1310.8
2014-Jul-25 23:16N 39°15' E 000°54'3210.6
2014-Jul-25 20:12N 39°41' E 001°20'710.3
2014-Jul-25 19:33N 39°47' E 001°25'1010.3
2014-Jul-25 18:33N 39°55' E 001°33'1010.0
2014-Jul-25 17:33N 40°03' E 001°40'10 9.9
2014-Jul-25 16:33N 40°11' E 001°48'10 9.8
2014-Jul-25 15:33N 40°19' E 001°56'10 9.6
2014-Jul-25 14:33N 40°27' E 002°03'9 9.3
2014-Jul-25 13:33N 40°34' E 002°10'10 9.7
2014-Jul-25 12:33N 40°42' E 002°18'1010.1
2014-Jul-25 11:33N 40°50' E 002°26'1010.4
2014-Jul-25 10:33N 40°58' E 002°34'1010.5
2014-Jul-25 09:33N 41°07' E 002°43'1110.5
2014-Jul-25 08:33N 41°15' E 002°51'1110.4
2014-Jul-25 07:32N 41°24' E 002°59'1010.1
2014-Jul-25 06:33N 41°32' E 003°07'10 9.9
2014-Jul-25 05:33N 41°39' E 003°15'10 9.9
2014-Jul-25 04:33N 41°48' E 003°23'1010.1
2014-Jul-25 03:31N 41°57' E 003°28'1010.3
2014-Jul-25 02:33N 42°07' E 003°31'10 9.8
2014-Jul-25 01:32N 42°17' E 003°34'10 9.9
2014-Jul-25 00:33N 42°26' E 003°35'1010.2
2014-Jul-24 23:32N 42°37' E 003°38'1010.4
2014-Jul-24 22:33N 42°47' E 003°40'1110.0
2014-Jul-24 21:24N 42°58' E 003°43'910.5
2014-Jul-24 20:34N 43°07' E 003°45'17 0.7
2014-Jul-23 21:08N 43°24' E 003°42'0 0.0
2014-Jul-23 19:17N 43°24' E 003°42'0 0.6
2014-Jul-23 18:34N 43°24' E 003°43'7 7.4
2014-Jul-23 17:33N 43°19' E 003°50'1111.2
2014-Jul-23 16:33N 43°10' E 003°40'1212.1
2014-Jul-23 15:31N 43°03' E 003°26'1111.6
2014-Jul-23 14:33N 42°58' E 003°13'8 3.3
2014-Jul-23 12:08N 43°01' E 003°03'0 0.0
2014-Jul-22 23:10N 43°01' E 003°03'0 0.0
2014-Jul-22 12:15N 43°01' E 003°03'0 0.0
2014-Jul-22 10:31N 43°01' E 003°03'0 0.0
2014-Jul-22 08:24N 43°01' E 003°03'0 0.0
2014-Jul-22 07:27N 43°01' E 003°03'0 0.0
2014-Jul-21 20:16N 43°01' E 003°03'0 0.0
2014-Jul-21 19:34N 43°01' E 003°03'0 0.0
2014-Jul-21 18:34N 43°01' E 003°03'0 0.0
2014-Jul-21 17:30N 43°01' E 003°03'0 0.0
2014-Jul-21 13:34N 43°01' E 003°03'0 0.0
2014-Jul-21 09:25N 43°01' E 003°03'0 0.0
2014-Jul-21 07:19N 43°01' E 003°03'0 0.0
2014-Jul-21 06:12N 43°01' E 003°03'0 0.0
2014-Jul-21 04:32N 43°01' E 003°03'0 0.0
2014-Jul-21 02:14N 43°01' E 003°03'0 0.0
2014-Jul-21 01:32N 43°01' E 003°03'0 0.0
2014-Jul-20 23:26N 43°01' E 003°03'0 0.0
2014-Jul-20 22:32N 43°01' E 003°03'0 0.0
2014-Jul-20 21:21N 43°01' E 003°03'0 0.0
2014-Jul-20 20:27N 43°01' E 003°03'0 0.0
2014-Jul-20 19:29N 43°01' E 003°03'5 0.8
2014-Jul-20 13:33N 42°60' E 003°09'1010.3
2014-Jul-20 12:33N 42°53' E 003°20'20 9.9
2014-Jul-20 10:31N 42°38' E 003°38'9 9.2
2014-Jul-20 09:33N 42°31' E 003°46'20 9.8
2014-Jul-20 07:33N 42°16' E 004°03'1110.8
2014-Jul-20 06:33N 42°08' E 004°13'1311.6
2014-Jul-20 05:25N 41°58' E 004°25'1110.8
2014-Jul-20 04:21N 41°50' E 004°35'1010.5
2014-Jul-20 03:22N 41°42' E 004°44'910.5
2014-Jul-20 02:33N 41°35' E 004°51'1111.3
2014-Jul-20 01:32N 41°28' E 005°03'11 9.2
2014-Jul-20 00:20N 41°18' E 005°11'810.1
2014-Jul-19 23:33N 41°12' E 005°17'1010.0
2014-Jul-19 22:33N 41°05' E 005°27'1310.2
2014-Jul-19 21:16N 40°55' E 005°38'710.0
2014-Jul-19 20:33N 40°50' E 005°44'1110.5
2014-Jul-19 19:33N 40°42' E 005°53'1010.3
2014-Jul-19 18:33N 40°34' E 006°02'1010.5
2014-Jul-19 17:33N 40°26' E 006°11'1110.5
2014-Jul-19 16:31N 40°18' E 006°21'1010.5
2014-Jul-19 15:32N 40°10' E 006°30'1210.8
2014-Jul-19 14:28N 40°02' E 006°40'1211.7
2014-Jul-19 13:28N 39°53' E 006°50'1010.3
2014-Jul-19 12:31N 39°45' E 006°58'1111.0
2014-Jul-19 11:32N 39°37' E 007°07'1111.1
2014-Jul-19 10:32N 39°29' E 007°17'  

Dump ship's entire track history